Temperature
13 13 13 13 13 13 13 13 13 13 13 12 12 12 12 12 12 12 12 11 11 11 11 11 10 10 10 10 10 10 10 10 10 10 10 10 10 9 10 9 9 9 10
12 12 12 12 13 13 13 13 13 12 12 12 12 12 12 12 12 11 11 11 11 11 11 11 10 10 10 10 10 10 10 10 10 10 10 10 9 9 9 9 9 9 9
12 12 12 12 12 12 13 12 12 12 12 12 12 12 12 11 11 11 11 11 11 11 11 10 10 10 9 9 9 9 9 9 9 9 9 9 9 9 9 9 9 9 9
11 11 12 12 12 12 12 12 12 12 12 12 12 11 11 11 11 11 11 11 10 10 10 10 10 10 9 9 9 9 9 9 9 9 9 9 9 8 8 8 8 8 8
11 11 11 11 11 11 12 12 12 12 12 12 11 11 11 11 11 10 10 10 10 10 10 10 9 9 9 9 9 9 9 9 9 9 9 9 8 8 8 8 8 8 8
10 10 11 11 11 11 11 11 11 11 11 11 11 11 11 10 10 10 10 10 10 10 10 9 9 9 9 9 9 9 9 9 9 8 8 8 8 8 8 8 8 7 7
10 10 10 10 11 11 11 11 11 11 11 11 11 10 10 10 10 10 10 9 9 9 9 9 9 9 9 9 9 8 8 8 8 8 8 8 8 8 7 7 7 7 7
10 10 10 10 10 10 10 10 10 10 10 10 10 10 9 9 9 10 9 9 9 9 9 9 9 9 8 8 8 8 8 8 8 8 8 7 7 7 7 7 7 7 7
9 9 9 9 10 10 10 10 10 10 10 10 10 9 9 9 8 9 9 9 9 9 8 8 8 8 8 8 8 8 8 8 8 7 7 7 7 7 7 7 7 7 7
8 9 9 9 9 9 9 9 9 9 9 9 9 9 9 9 8 8 8 8 8 8 8 8 8 8 8 7 7 7 7 7 7 7 7 7 7 7 7 6 6 6 6
8 8 8 8 8 8 9 9 9 9 9 9 9 9 8 8 8 8 7 8 8 8 8 7 7 7 7 7 7 7 7 7 7 7 7 7 7 7 6 6 6 6 6
7 7 7 7 8 8 8 8 8 8 8 8 8 8 8 8 8 7 7 7 7 7 7 7 7 7 7 7 7 6 6 6 7 6 6 6 6 6 6 6 6 6 6
7 7 6 7 7 7 7 7 7 7 8 8 8 8 7 7 7 7 7 7 6 7 7 7 6 6 6 6 6 6 6 6 6 6 6 6 6 6 6 5 5 5 5
6 6 6 6 6 6 6 6 7 7 7 7 7 7 7 7 7 7 6 6 6 6 6 6 6 6 6 6 6 6 6 6 6 6 6 6 6 5 5 5 5 5 5
5 5 5 5 6 6 6 6 6 6 6 6 6 6 6 6 6 6 6 6 6 5 5 6 6 5 5 5 5 5 5 5 5 5 5 5 5 5 5 4 4 4 4
5 5 5 5 5 5 5 5 5 5 5 5 5 6 6 5 5 5 5 5 5 5 5 5 5 5 5 5 5 5 5 5 5 5 5 5 5 5 4 4 4 4 4
4 5 5 4 5 5 5 5 5 5 5 5 5 5 5 5 5 5 5 5 5 4 4 5 5 4 4 5 5 5 5 5 5 5 4 4 4 4 4 4 4 4 4
4 4 4 4 4 4 4 4 4 4 4 4 4 4 4 5 4 4 4 4 4 4 4 4 4 4 4 4 4 4 4 4 4 4 4 4 4 4 4 4 4 4 4
4 4 4 3 3 3 3 3 3 4 4 4 4 4 4 4 4 4 4 4 4 4 4 4 4 4 4 4 4 4 4 4 4 4 4 4 4 3 3 3 3 3 3
3 3 3 3 3 3 3 3 3 3 3 3 3 3 3 3 4 3 3 3 3 3 3 3 3 4 4 4 3 4 4 4 4 4 4 4 3 3 3 3 3 3 3
3 3 3 2 2 2 2 2 2 2 2 3 3 3 3 3 3 3 3 3 3 3 3 3 3 3 3 3 3 3 3 3 3 3 3 4 3 3 3 3 3 3 3
2 2 2 2 2 2 2 2 2 2 2 2 2 2 2 2 2 2 2 2 2 2 2 2 2 2 2 2 2 2 2 2 2 3 3 3 3 3 3 3 3 3 2
2 2 2 2 1 1 1 1 1 1 1 1 2 2 2 2 2 2 2 2 2 2 2 2 2 2 2 2 2 2 2 1 2 2 2 2 3 3 3 3 3 2 2
1 1 1 1 1 1 1 1 1 1 1 1 1 1 1 2 1 1 1 1 2 2 1 1 1 1 1 1 1 1 1 1 2 2 1 1 2 2 3 3 2 2 2
1 1 1 1 0 0 0 0 0 0 0 0 0 1 1 1 1 1 1 1 1 1 1 1 1 1 1 1 1 1 1 1 1 1 1 1 1 1 2 2 2 2 2
0 0 0 0 -0 -0 -0 -0 -0 -0 -0 -0 -0 -0 0 0 0 0 0 1 1 1 1 1 1 1 1 1 1 0 0 0 -0 -0 0 0 1 1 1 2 2 2 2
Wind_Speed
1 2 2 2 2 3 3 2 2 2 2 2 2 3 3 3 4 4 3 3 2 2 2 2 3 3 3 4 5 6 6 7 7 7 7 7 8 8 9 8 8 8 8
2 2 1 2 2 2 2 3 3 2 1 1 1 2 3 3 3 4 4 3 2 2 2 2 3 4 4 5 5 6 6 6 7 7 7 8 8 9 9 9 9 8 9
3 2 2 1 2 2 3 3 3 3 2 2 1 1 2 2 3 4 4 3 2 1 1 2 3 4 5 5 6 6 6 6 7 7 8 8 8 9 9 9 9 9 9
3 3 2 1 2 3 3 2 2 2 1 1 0 0 1 1 2 4 4 3 2 1 1 2 3 4 5 6 6 6 6 6 7 8 8 9 9 9 9 9 10 10 10
3 3 2 2 3 3 2 1 2 2 2 1 1 1 1 1 2 2 2 2 2 1 1 1 2 3 4 6 6 7 7 7 7 8 9 9 9 9 10 10 10 10 9
3 3 2 3 3 2 1 1 1 1 1 1 1 0 0 1 1 1 1 1 1 1 1 1 1 2 4 5 7 8 8 8 8 9 9 9 9 10 10 10 10 10 10
3 3 2 2 2 2 1 1 1 2 1 1 2 1 1 1 1 1 1 1 0 0 0 1 1 2 3 4 6 8 9 9 9 9 9 9 9 10 10 10 10 10 10
3 2 2 1 2 2 2 1 1 1 1 1 2 2 0 2 1 1 1 1 1 1 1 1 1 1 2 3 6 9 10 9 9 9 9 9 9 10 10 10 10 10 10
3 2 2 1 1 1 1 1 1 2 2 0 1 2 2 2 2 1 1 1 1 1 1 2 2 1 2 3 5 7 9 10 10 10 10 9 10 10 10 10 10 10 10
3 3 2 2 1 1 1 0 1 0 2 1 0 0 1 2 1 1 2 1 1 2 2 2 2 2 3 4 5 8 9 10 11 10 10 10 10 10 10 10 10 10 10
4 3 2 2 2 1 1 1 1 1 0 1 1 0 1 1 1 1 2 2 2 2 3 2 2 2 3 4 5 7 9 9 10 11 11 11 10 10 11 11 10 11 11
2 3 3 2 3 2 1 1 1 1 1 0 0 0 1 1 1 1 1 2 3 3 2 2 2 2 2 4 6 8 8 9 10 10 11 11 10 10 10 10 11 10 11
2 1 2 2 2 1 2 1 1 1 1 1 0 0 0 0 1 1 1 1 2 3 2 2 2 2 3 4 6 8 8 9 9 10 10 10 10 10 10 10 10 10 10
1 1 1 1 2 2 2 1 1 0 0 0 0 0 0 0 1 1 1 1 2 2 2 3 2 2 4 5 7 8 8 9 9 9 9 10 9 9 9 9 9 9 9
1 2 1 1 2 2 1 1 0 0 0 0 0 1 0 1 0 0 1 1 1 2 4 3 2 3 5 6 8 7 8 9 9 9 9 9 9 9 8 9 9 9 9
1 1 1 1 2 2 1 1 0 0 0 0 0 1 0 1 0 0 0 1 1 2 3 3 3 3 5 6 8 8 8 9 9 9 9 9 9 9 8 8 8 8 9
1 1 1 1 1 1 0 0 0 1 0 0 0 0 1 1 0 0 0 0 1 1 3 4 3 3 3 4 6 7 7 7 8 10 9 9 9 8 8 8 8 9 9
0 1 1 1 1 1 0 0 0 0 0 1 1 1 1 1 1 1 1 1 1 1 2 4 4 3 4 4 4 5 7 7 7 9 9 9 9 9 9 9 8 8 8
0 0 1 1 1 1 1 1 0 1 1 1 1 1 1 1 1 1 1 1 2 2 1 3 4 3 3 4 5 5 6 5 7 8 8 9 9 10 9 8 8 8 8
0 0 1 1 1 1 1 1 0 0 1 1 1 1 2 2 2 2 2 2 1 1 2 2 3 4 4 4 4 5 6 5 6 6 7 8 9 9 8 8 8 8 7
0 0 1 1 1 1 1 1 0 0 1 1 2 2 2 2 2 2 2 1 1 1 2 2 3 4 4 4 4 4 6 6 6 3 4 6 6 5 6 8 8 8 8
1 1 1 1 1 2 2 1 1 0 1 1 2 2 2 2 2 4 4 3 2 2 2 2 3 4 5 5 5 5 5 6 5 3 4 7 4 5 5 5 8 8 8
1 1 2 1 2 2 3 2 1 0 1 1 2 2 2 2 3 2 3 4 4 4 4 3 4 5 5 5 5 5 5 6 6 5 5 6 4 6 5 7 9 8 7
1 1 1 1 1 2 3 3 2 1 0 1 2 2 2 2 3 2 2 2 3 3 4 3 3 5 5 5 5 5 5 6 6 4 3 4 4 5 6 7 8 7 7
1 1 1 1 1 2 3 3 2 1 1 2 2 2 2 2 4 5 2 3 4 3 4 5 6 7 8 8 6 3 3 4 5 4 2 2 3 5 5 4 6 7 7
1 1 1 1 1 2 3 2 2 0 1 2 2 3 3 4 5 6 3 2 4 4 3 4 5 6 5 6 6 3 3 4 4 4 2 2 3 3 3 3 3 5 6
Wind_Direction
79 80 77 60 62 61 91 93 96 99 92 79 104 119 122 124 135 136 134 125 106 78 54 36 19 14 12 14 5 4 5 3 358 349 342 338 336 333 332 330 330 325 322
86 92 93 60 51 66 83 116 114 113 109 88 86 116 126 124 131 136 134 134 119 97 57 29 5 356 1 3 357 358 357 357 355 352 346 342 336 334 334 332 329 327 324
87 84 95 74 42 68 82 93 94 91 91 79 75 117 127 131 137 141 137 131 125 113 51 12 354 351 354 354 353 351 349 349 349 348 346 340 335 334 332 331 329 327 324
91 87 94 75 49 59 77 103 129 126 114 99 132 178 128 130 143 143 138 129 123 109 46 8 352 351 350 349 348 348 350 344 342 341 338 333 329 329 328 327 324 321 319
82 80 97 84 73 60 70 120 135 147 147 130 189 175 156 156 166 136 132 128 122 107 70 355 346 349 348 346 342 342 342 338 333 330 328 327 326 326 324 323 321 320 318
81 75 90 91 87 83 53 78 110 125 154 170 146 95 138 165 146 143 153 127 108 94 63 13 348 331 338 344 342 339 337 334 330 326 323 322 321 321 321 321 320 319 319
71 65 69 101 100 119 112 105 120 131 103 115 99 49 357 40 126 163 177 167 112 23 48 3 340 339 333 341 341 336 331 330 328 326 323 320 317 318 316 316 317 318 316
56 70 71 82 107 115 102 80 108 127 109 107 126 130 348 337 336 279 231 210 223 314 326 304 296 318 329 334 332 332 328 327 324 322 322 320 318 316 314 312 313 313 313
39 44 65 69 95 122 135 124 139 139 160 161 114 135 150 219 297 296 245 236 264 272 292 284 287 294 309 313 321 321 326 327 325 322 320 318 318 317 316 313 312 311 310
37 34 46 57 76 90 120 148 69 156 153 180 184 84 138 148 162 288 299 276 269 262 267 283 285 276 295 303 313 320 324 327 326 325 322 318 317 319 318 315 314 314 314
19 24 37 52 55 61 90 77 37 29 138 178 165 143 84 74 120 183 267 298 302 268 253 260 279 279 297 303 306 313 322 326 326 324 324 320 318 317 316 314 313 312 314
9 14 25 44 44 38 50 70 54 45 18 33 69 100 148 154 185 179 246 280 291 287 282 278 269 278 292 301 307 317 320 323 322 322 321 320 318 317 316 314 313 311 314
350 349 9 33 43 34 38 54 75 51 28 35 116 56 50 184 164 157 182 282 295 298 296 280 261 289 305 310 309 313 316 318 318 320 321 322 321 321 321 318 316 316 318
294 326 360 23 26 37 54 54 84 185 131 45 31 84 20 281 119 141 174 212 298 294 282 278 285 295 321 314 309 314 312 314 315 319 323 325 325 324 323 322 322 322 323
339 3 8 33 18 24 56 91 55 297 183 182 196 194 14 333 108 151 148 178 198 269 277 277 299 302 323 323 318 315 312 312 315 317 318 318 317 318 318 319 322 323 325
353 1 1 19 13 9 30 73 10 331 49 311 247 137 40 355 50 17 199 236 215 228 266 271 273 295 318 319 322 322 308 316 314 312 312 311 312 315 317 317 317 321 324
336 1 340 358 357 345 358 71 350 7 29 325 339 179 295 346 316 290 290 259 264 248 264 285 283 301 305 307 318 322 315 312 310 311 311 312 314 315 314 314 315 317 316
322 326 334 340 328 332 317 184 289 309 286 278 271 284 301 321 328 281 258 259 262 273 266 289 300 305 305 304 312 318 325 319 317 312 314 314 315 316 315 312 311 312 315
187 339 357 289 284 291 272 287 274 278 280 284 258 242 273 262 280 282 267 259 271 293 289 287 300 305 311 322 325 321 321 320 324 319 318 316 314 316 316 312 308 306 308
142 7 325 290 294 292 252 244 214 308 298 304 288 244 246 244 252 269 265 265 285 301 301 295 304 314 318 323 321 324 325 323 320 321 320 318 316 318 315 312 307 304 304
343 294 307 304 301 288 239 218 202 299 280 290 302 283 262 272 289 296 297 282 275 281 297 302 307 317 317 323 319 320 315 318 310 308 315 316 317 317 314 310 306 307 311
313 304 294 290 299 300 302 307 4 208 254 261 284 297 287 293 309 319 321 320 307 278 277 290 296 299 303 311 314 316 316 321 313 315 319 308 308 299 304 300 305 308 312
265 281 286 276 286 298 316 313 319 27 254 263 269 282 295 307 314 296 318 326 318 313 295 276 278 284 289 293 301 305 308 308 297 300 310 297 296 289 294 296 302 305 310
249 260 278 255 276 303 322 326 337 32 310 279 286 276 274 293 300 301 293 305 293 287 288 284 265 272 283 286 282 286 294 302 297 292 291 287 294 288 297 293 291 299 313
261 265 279 238 255 293 314 327 5 34 325 307 309 301 291 281 301 306 291 293 300 296 304 310 310 306 305 303 304 302 303 312 310 302 296 281 291 303 291 275 283 293 306
266 286 302 265 243 274 306 334 1 29 321 321 319 312 297 299 303 312 280 271 285 291 303 314 319 319 311 304 306 288 275 288 304 295 288 299 288 309 301 276 278 294 300
Height
1516 1517 1517 1518 1519 1520 1521 1523 1523 1524 1526 1526 1527 1528 1528 1528 1528 1528 1528 1528 1528 1527 1527 1526 1525 1523 1522 1521 1520 1518 1516 1515 1513 1511 1510 1508 1506 1505 1503 1502 1501 1499 1498
1515 1516 1516 1517 1518 1518 1519 1521 1521 1523 1524 1525 1525 1526 1526 1527 1527 1527 1527 1527 1526 1526 1525 1524 1523 1522 1521 1520 1518 1517 1515 1513 1511 1510 1508 1506 1504 1503 1501 1500 1498 1497 1496
1513 1514 1515 1515 1516 1516 1517 1518 1520 1521 1522 1523 1524 1524 1525 1525 1525 1525 1525 1525 1525 1524 1523 1522 1521 1520 1519 1518 1516 1515 1513 1511 1509 1507 1506 1504 1502 1501 1499 1498 1496 1495 1493
1511 1512 1513 1513 1514 1514 1515 1516 1518 1519 1520 1521 1522 1522 1523 1523 1523 1523 1523 1523 1523 1522 1521 1521 1519 1518 1517 1516 1514 1513 1511 1509 1507 1505 1503 1502 1500 1498 1496 1495 1494 1492 1491
1509 1510 1510 1511 1512 1512 1513 1514 1515 1516 1517 1518 1519 1520 1520 1521 1521 1521 1521 1521 1521 1520 1520 1519 1518 1516 1515 1513 1512 1510 1508 1506 1505 1503 1501 1499 1497 1496 1494 1492 1491 1490 1488
1508 1508 1508 1509 1510 1511 1511 1512 1512 1514 1515 1516 1517 1518 1518 1519 1519 1519 1519 1519 1519 1519 1518 1517 1515 1514 1513 1511 1510 1508 1506 1504 1502 1500 1498 1496 1495 1493 1491 1490 1488 1487 1485
1505 1506 1506 1507 1508 1508 1509 1509 1510 1511 1512 1513 1515 1515 1516 1516 1517 1517 1517 1517 1517 1516 1515 1514 1513 1512 1510 1509 1507 1505 1503 1501 1499 1497 1495 1494 1492 1490 1488 1487 1485 1484 1482
1504 1504 1504 1505 1505 1506 1507 1508 1508 1508 1509 1511 1511 1512 1513 1514 1513 1514 1514 1514 1514 1514 1513 1512 1511 1510 1508 1506 1505 1503 1501 1499 1497 1495 1493 1491 1489 1487 1486 1484 1482 1480 1479
1502 1502 1503 1503 1503 1504 1505 1505 1506 1506 1506 1508 1509 1510 1510 1509 1510 1511 1511 1511 1511 1511 1510 1509 1508 1507 1505 1504 1502 1500 1498 1496 1494 1492 1490 1488 1486 1484 1482 1481 1479 1477 1475
1499 1500 1500 1501 1502 1503 1503 1503 1504 1504 1504 1505 1506 1507 1508 1507 1508 1507 1508 1508 1508 1508 1507 1506 1505 1504 1502 1501 1499 1498 1495 1493 1491 1489 1487 1485 1483 1481 1479 1478 1476 1474 1472
1498 1498 1498 1498 1499 1500 1501 1501 1502 1502 1502 1503 1503 1504 1504 1505 1505 1505 1504 1504 1505 1505 1504 1503 1502 1501 1499 1498 1496 1495 1493 1490 1488 1486 1484 1482 1480 1478 1476 1474 1472 1471 1469
1496 1496 1496 1496 1496 1498 1499 1499 1500 1500 1500 1500 1501 1501 1501 1502 1502 1502 1501 1501 1501 1501 1500 1500 1499 1498 1496 1495 1493 1491 1490 1488 1485 1483 1481 1479 1476 1474 1473 1471 1469 1467 1465
1494 1495 1495 1495 1495 1496 1497 1497 1498 1498 1498 1498 1498 1498 1499 1499 1499 1499 1499 1498 1498 1497 1497 1496 1496 1495 1493 1492 1490 1488 1486 1484 1482 1480 1478 1476 1473 1471 1469 1468 1466 1464 1462
1493 1493 1494 1494 1494 1494 1495 1495 1496 1496 1496 1496 1496 1496 1496 1496 1496 1496 1496 1496 1495 1494 1493 1493 1492 1491 1490 1488 1487 1485 1483 1481 1479 1477 1475 1472 1470 1468 1466 1464 1462 1460 1459
1492 1492 1492 1492 1492 1492 1493 1493 1493 1494 1494 1494 1493 1493 1493 1493 1493 1493 1494 1494 1494 1491 1490 1488 1488 1487 1486 1484 1483 1481 1479 1477 1475 1474 1472 1469 1467 1465 1463 1461 1459 1457 1455
1490 1490 1490 1490 1490 1490 1491 1491 1491 1492 1492 1491 1491 1491 1491 1490 1490 1491 1491 1491 1491 1490 1487 1486 1485 1484 1483 1481 1479 1478 1476 1474 1472 1470 1468 1466 1464 1462 1460 1458 1456 1454 1453
1488 1488 1489 1489 1489 1489 1489 1489 1489 1489 1489 1489 1489 1488 1488 1488 1488 1488 1488 1488 1487 1487 1485 1483 1482 1481 1479 1477 1476 1474 1472 1470 1469 1467 1465 1463 1461 1459 1457 1455 1453 1451 1450
1487 1487 1487 1487 1487 1487 1487 1487 1486 1487 1487 1486 1486 1486 1485 1485 1485 1485 1485 1485 1484 1483 1482 1479 1478 1477 1476 1474 1472 1470 1469 1467 1465 1464 1462 1460 1458 1456 1454 1452 1450 1448 1446
1485 1485 1485 1485 1485 1485 1484 1484 1484 1484 1484 1484 1484 1483 1483 1483 1482 1482 1482 1481 1481 1480 1479 1477 1475 1473 1472 1471 1469 1467 1465 1464 1462 1460 1458 1456 1455 1452 1450 1448 1447 1445 1443
1482 1482 1482 1482 1482 1482 1482 1482 1482 1482 1481 1481 1481 1480 1480 1480 1479 1479 1479 1478 1477 1477 1476 1474 1472 1470 1468 1467 1466 1463 1461 1460 1458 1456 1455 1453 1451 1449 1447 1445 1443 1442 1440
1480 1480 1480 1480 1480 1479 1479 1479 1479 1479 1479 1478 1478 1477 1477 1477 1477 1476 1476 1475 1474 1473 1472 1471 1469 1467 1465 1464 1462 1460 1458 1456 1454 1453 1451 1449 1447 1445 1443 1441 1440 1438 1436
1478 1478 1477 1477 1477 1477 1477 1477 1477 1476 1476 1475 1475 1474 1474 1474 1474 1473 1473 1472 1471 1470 1469 1468 1466 1464 1462 1461 1459 1457 1456 1453 1450 1450 1447 1445 1443 1441 1439 1438 1436 1434 1433
1476 1475 1475 1475 1475 1475 1475 1474 1474 1473 1473 1472 1472 1471 1471 1470 1470 1469 1469 1469 1468 1467 1467 1466 1463 1462 1460 1459 1457 1455 1453 1452 1449 1447 1444 1441 1440 1437 1436 1434 1432 1431 1429
1474 1473 1473 1472 1472 1472 1472 1471 1471 1470 1470 1469 1469 1468 1468 1467 1467 1467 1466 1466 1465 1464 1463 1462 1461 1459 1458 1457 1455 1453 1451 1448 1446 1445 1443 1439 1436 1434 1432 1430 1429 1427 1426
1471 1471 1470 1470 1470 1469 1469 1469 1469 1468 1467 1466 1466 1465 1464 1464 1464 1464 1464 1462 1461 1460 1460 1459 1457 1456 1455 1453 1452 1450 1448 1445 1442 1441 1440 1437 1433 1431 1428 1427 1425 1424 1422
1469 1469 1468 1468 1467 1467 1467 1466 1466 1465 1464 1463 1462 1462 1462 1462 1461 1461 1460 1459 1458 1457 1456 1455 1454 1453 1452 1450 1449 1447 1445 1443 1440 1438 1437 1435 1432 1429 1425 1423 1422 1421 1419